Regional Weather Roundup
Issued by NWS Wakefield, VA

Home | Current Version | Previous Version | Graphics & Text | Print | Product List | Glossary On
Versions: 1 2 3 4 5 6 7 8 9 10 11 12 13 14 15 16 17 18 19 20 21 22 23 24 25 26 27 28 29 30 31 32 33 34 35 36 37 38 39 40 41 42 43 44 45 46 47 48 49 50
471
ASUS41 KAKQ 281415
RWRAKQ

REGIONAL WEATHER ROUNDUP
NATIONAL WEATHER SERVICE WAKEFIELD VA
1000 AM EDT SUN MAY 28 2017

Note: "fair" indicates few or no clouds below 12,000 feet with no
significant weather and/or obstructions to visibility. * = Denotes
station may not report precipitation (e.g., rain,snow,etc.),
thunder or fog.

VAZ042-051-052>054-056-281500-
NORTHERN VIRGINIA

CITY           SKY/WX    TMP DP  RH WIND       PRES   REMARKS
WASH NATIONAL  PTSUNNY   71  60  68 E7        29.89S
DULLES         CLOUDY    69  61  75 NE3       29.88F
FORT BELVOIR   MOSUNNY   71  60  69 NE3       29.87F
QUANTICO       PTSUNNY   69  64  84 VRB3      29.88F
FREDERICKSBRG* PTSUNNY   70  65  85 E7        29.86S
STAFFORD*      PTSUNNY   69  65  85 E3        29.91S
WARRENTON      PTSUNNY   70  60  70 CALM      29.87S
CULPEPER*      CLOUDY    67  63  85 CALM      29.89S
MANASSAS*      PTSUNNY   71  62  73 SE7       29.88F
LEESBURG*      CLOUDY    64  63  94 E7        29.90S
WINCHESTER     CLOUDY    63  61  94 E3        29.87F
FRONT ROYAL*   CLOUDY    64  63  94 N5        29.86F
LURAY*         CLOUDY    66  63  88 NE3       29.86F
$$

VAZ048-049-060>072-079>083-281500-
CENTRAL AND SOUTH CENTRAL VIRGINIA

CITY           SKY/WX    TMP DP  RH WIND       PRES   REMARKS
RICHMOND       LGT RAIN  71  67  87 E6        29.84S
CHESTERFIELD*  NOT AVBL
PETERSBURG*    CLOUDY    67  65  96 CALM      29.85R
HANOVER        PTSUNNY   67  63  87 E5        29.86S FOG
TAPPAHANNOCK*  MOSUNNY   72  64  75 E6        29.87S
QUINTON*       PTSUNNY   70  69  96 MISG      29.84S
CHARLOTTSVILLE CLOUDY    67  64  90 N6        29.87S FOG
GORDONSVILLE*  CLOUDY    66  63  89 NE6       29.86F
ORANGE*        CLOUDY    66  63  88 N5        29.87F
LOUISA*        CLOUDY    70  66  88 E6        29.86R
BUMPASS*       CLOUDY    66  65  97 E5        29.86S
FARMVILLE*     CLOUDY    66  63  90 N5        29.84R FOG
CREWE*         CLOUDY    65  61  87 NE6       29.84S
FORT PICKETT*  CLOUDY   N/A N/A N/A E5        29.84S
CHASE CITY*    CLOUDY    68  66  94 CALM      29.86R
CLARKSVILLE*   CLOUDY    70  68  94 SW5       29.86S
SOUTH HILL*    CLOUDY    66  66  99 CALM      29.89S
LAWRENCEVILLE* CLOUDY    67  64  90 CALM      29.84S
EMPORIA*       CLOUDY    66  64  94 CALM      29.85F
$$

VAZ088>098-281500-
SOUTHEAST VIRGINIA

CITY           SKY/WX    TMP DP  RH WIND       PRES   REMARKS
NORFOLK        CLOUDY    73  66  78 NE5       29.85S
VIRGINIA BEACH CLOUDY    71  64  78 E6        29.85S
NORFOLK NAVAL  CLOUDY    73  65  75 E7        29.85F
WEST POINT*    MOSUNNY   73  64  74 SE9       29.86S
SALUDA*        FAIR      70  66  86 E9        29.86F
NEWPORT NEWS   CLOUDY    71  66  84 E9        29.84F
LANGLEY AFB    CLOUDY    71  67  88 NE13      29.84F
FORT EUSTIS    CLOUDY    73  67  81 E9        29.81F
WILLIAMSBURG*  CLOUDY    73  70  88 E3        29.85F
HR EXEC AP*    FAIR      72  66  83 SE6       29.83F
FRANKLIN*      CLOUDY    70  66  88 CALM      29.85S
US460-WAKEFLD  CLOUDY    70  68  93 VRB3      29.85R
$$

VAZ020-022-025-037-045-281500-
WEST CENTRAL AND SOUTHWEST VIRGINIA

CITY           SKY/WX    TMP DP  RH WIND       PRES   REMARKS
STAUNTON*      CLOUDY    66  63  89 CALM      29.89F
WAYNESBORO*    CLOUDY    65  63  93 SE8       29.88S
HOT SPRINGS VA FOG       61  59  94 CALM      29.96R VSB 1/4
LYNCHBURG      CLOUDY    66  61  84 NE3       29.87R
DANVILLE       PTSUNNY   71  66  84 CALM      29.87S
SOUTH BOSTON*  CLOUDY    69  67  95 CALM      29.86R
MARTINSVILLE   PTSUNNY   73  63  71 CALM      29.91R
ROANOKE        CLOUDY    72  63  73 W5        29.90R
BLACKSBURG     CLOUDY    65  61  85 W3        29.96S
DUBLIN*        CLOUDY    70  57  63 W8        29.94S
MARION*        CLOUDY    66  59  79 CALM      29.98S
HILLSVILLE*    CLOUDY    66  58  75 CALM      29.95S
RICHLANDS*     PTSUNNY   64  61  87 SW3       29.97R
WISE*          CLOUDY    64  64 100 CALM      29.97R
ABINGDON*      CLOUDY    65  63  91 W6        29.96S
$$

MDZ021>025-VAZ099-100-281500-
SOUTHERN MARYLAND AND THE DELMARVA PENINSULA

CITY           SKY/WX    TMP DP  RH WIND       PRES   REMARKS
PATUXENT RIVER CLOUDY    68  63  84 SE9       29.87F
BAY BRIDGE APT MOSUNNY   72  59  64 SE6       29.90S
LEONARDTOWN    CLOUDY    68  59  73 E9        29.89F
DOVER          SUNNY     68  68  98 E13       29.90S
GEORGETOWN     SUNNY     71  58  63 SE13      29.92R
EASTON         PTSUNNY   73  59  60 E8        29.92F
CAMBRIDGE      MOSUNNY   72  61  68 E10       29.89F
SALISBURY      SUNNY     73  58  59 E14       29.90R
OCEAN CITY     SUNNY     67  61  81 E8        29.92R
WALLOPS ISLAND PTSUNNY   69  61  75 E10       29.90S
ACCOMACK*      MOSUNNY   70  19  14 E10       29.87F
$$

NCZ012>017-030>032-281500-
NORTH CENTRAL AND EASTERN NORTH CAROLINA

CITY           SKY/WX    TMP DP  RH WIND       PRES   REMARKS
ROANOKE RAPIDS FAIR      72  68  88 CALM      29.84R
RALEIGH        PTSUNNY   78  70  76 SW10      29.87R
ELIZABETH CITY CLOUDY    75  70  84 E8        29.86R
AHOSKIE*       NOT AVBL
EDENTON*       CLOUDY    76  71  83 CALM      29.86R
CURRITUCK*     CLOUDY    76  66  71 E3        29.87S
KILL DEVIL HLS CLOUDY    76  64  65 CALM      29.86R
MANTEO         CLOUDY    76  67  73 SE6       29.87S
CAPE HATTERAS  CLOUDY    79  72  79 SW7       29.86S
TARBORO*       NOT AVBL
GOLDSBORO      SUNNY     80  73  79 W6        29.85R
WASHINGTON     CLOUDY    76  70  81 SW8       29.87R
GREENVILLE     CLOUDY    79  72  78 SW7       29.88S HAZE
NEW BERN       MOSUNNY   83  71  67 SW8       29.88R
WILMINGTON     MOSUNNY   82  70  66 SW12      29.89R
$$

VAZ048-281500-
ELSEWHERE

CITY           SKY/WX    TMP DP  RH WIND       PRES   REMARKS
HARRISBURG PA  CLOUDY    66  62  87 CALM      29.90R FOG
BALTIMORE      CLOUDY    68  59  73 E8        29.89R
ANNAPOLIS      PTSUNNY   70  62  76 SE6       29.89S
ANDREWS AFB    SUNNY     71  59  66 E8        29.87F
PHILADELPHIA   MOSUNNY   73  60  63 E6        29.91S
HENDERSON NC   MOSUNNY   69  65  86 SW6       29.87R
GREENSBORO     PTSUNNY   71  65  81 W7        29.89R
ROCKY MOUNT    SUNNY     79  69  71 S10       29.85R
$$

VAZ100-281500-
MARINE

STATION/POSITION TIME  TEMP    WIND        PRES    WAVE   SWELL
                       AIR SEA DIR/SP/G            HT/PER HT/PER
                 (UTC) (F)     (DEG/KT/KT) (MB)    (FT/S) (FT/S)
CAPE MAY NJ      1348   65 63  110/ 12/ 16 1012.4F
LEWES DE         1348   64 64  120/  9/ 10 1012.9R
15NM E FENWICK I 1350   61 60   70/ 10/ 10 1013.0S   2/ 7   2/ 7
WACHAPREAGUE VA  1348   66 70   60/  9/ 11 1011.4F
THOMAS POINT MD  1400   65 65   50/  4/  5   N/A
GOOSES REEF MD   1350   68      90/  8/  8 1012.5F
COVE POINT MD    1348   68     160/  7/  8 1012.3F
SOLOMONS ISLAND  1348   67 68  110/  8/  9   N/A
BISHOPS HEAD MD  1348   70 70   90/ 10/ 12 1012.1F
PINEY POINT MD   1342          130/ 10/ 12   N/A
POTOMAC MD       1350   67     130/ 10/ 12 1010.6F
CAMBRIDGE MD     1342   71 70                N/A
LEWISETTA VA     1348   67 70  120/ 12/ 13 1011.5S
RAPPAHANNOCK LGT 1342          100/ 15/ 17 1011.7F
STINGRAY PT      1350   68     150/  8/ 10 1011.5F
YORK RVR RNG VA  1348   68     120/  5/  6 1010.5F
YORKTOWN VA      1348   68 70   90/  8/ 10 1010.5F
JAMESTOWN VA     1350   70      90/  8/ 12   N/A
DOMINION TERM VA 1348   69      10/  2/  4 1010.7F
KIPTOPEKE VA     1348      68  100/  9/ 13   N/A
CHES BAY BRIDGE  1348   66 67   90/ 11/ 11 1010.8F
CAPE HENRY VA    1348   67     100/  5/  6   N/A
WILLOUBY STN VA  1348   67      80/  8/  9 1010.5F
S CRANEY ISL VA  1348   72     140/  2/  2 1010.5F
CAPE HENRY BUOY  1342      66                N/A     2/ 8
1ST LANDING BUOY 1350   67                 1011.2F
CAPE CHARLES BUO 1351      65                N/A     2/ 8
64NM E OF VA BCH 1350   68 65  110/  4/  4 1011.6F   3/ 5   2/ 5
DUCK PIER NC     1348   70 66  150/  6/  7 1010.8R
44100 DUCK FRF   1305      67                N/A     2/ 7
44056 DUCK FRF   1400      68                N/A     2/ 8
OREGON INLET NC  1348           80/  7/  9   N/A
HATTERAS NC      1348   77 74  200/  6/  9 1010.9F
DIAMOND SHLS NC  1350   76 77  230/ 12/ 14 1011.3R   4/ 6   3/ 6
CAPE LOOKOUT NC  1300   77     240/  8/ 11 1011.5R
$$




USA.gov is the U.S. government's official web portal to all federal, state and local government web resources and services.